Date String (YYYY-MM-DD hh:mm:ss) UTC,Instrument flags,Ambient pressure (hPa),Sample flow (lpm),Bypass flow (lpm),Sample temperature (°C),Ambient temperature (°C),ASC tube jacket temperature (°C),LED temperature (°C),Box temperature (°C),Sample RH (%),Span deviation,Mass concentration (μg/m³),Mass concentration (μg/m³),Mass concentration (μg/m³)
DateTimeUTC,F1_M11,P_M11,Q1_M11,Q2_M11,T1_M11,T2_M11,T3_M11,T4_M11,T5_M11,U1_M11,ZSPAN_M11,X0_M11,X2_M11,X1_M11
2022-01-02 06:00:00,,0823.7,5.00,0.00,22.5,22.2,00.0,31.6,24.2,04.9,0000.0,0000.77,0000.13,0000.03
2022-01-02 06:01:00,,0823.7,5.01,0.00,22.6,23.0,00.0,31.6,24.4,04.8,0000.0,0000.98,0000.13,0000.03
2022-01-02 06:02:00,,0823.7,4.99,0.00,22.8,23.5,00.0,31.7,24.7,04.3,0000.0,0000.98,0000.13,0000.03
2022-01-02 06:03:00,,0823.7,5.01,0.00,22.8,23.3,00.0,31.7,24.7,04.6,0000.0,0000.98,0000.13,0000.03
2022-01-02 06:04:00,,0823.7,5.02,0.00,22.8,23.1,00.0,31.7,24.6,04.5,0000.0,0001.50,0000.13,0000.03
2022-01-02 06:05:00,,0823.7,5.01,0.00,22.8,22.8,00.0,31.7,24.5,04.5,0000.0,0001.41,0000.09,0000.02
2022-01-02 06:06:00,,0823.7,4.99,0.00,22.7,22.6,00.0,31.7,24.4,04.3,0000.0,0002.23,0000.09,0000.02
2022-01-02 06:07:00,,0823.7,5.01,0.00,22.7,22.4,00.0,31.7,24.3,04.4,0000.0,0002.61,0000.10,0000.02
2022-01-02 06:08:00,,0823.7,4.99,0.00,22.7,22.2,00.0,31.7,24.3,04.3,0000.0,0002.63,0000.11,0000.02
2022-01-02 06:09:00,,0823.7,5.01,0.00,22.6,22.1,00.0,31.6,24.2,04.4,0000.0,0002.77,0000.13,0000.03
2022-01-02 06:10:00,,0823.6,4.99,0.00,22.6,22.0,00.0,31.6,24.1,04.9,0000.0,0002.97,0000.14,0000.03
2022-01-02 06:11:00,,0823.7,5.02,0.00,22.5,21.9,00.0,31.6,24.1,05.3,0000.0,0002.81,0000.11,0000.02
2022-01-02 06:12:00,,0823.7,4.99,0.00,22.5,22.4,00.0,31.6,24.2,05.4,0000.0,0002.56,0000.13,0000.02
2022-01-02 06:13:00,,0823.8,5.00,0.00,22.7,23.1,00.0,31.6,24.5,05.6,0000.0,0002.59,0000.14,0000.02
2022-01-02 06:14:00,,0823.7,5.00,0.00,22.8,23.4,00.0,31.7,24.7,05.2,0000.0,0002.59,0000.14,0000.02
2022-01-02 06:15:00,,0823.7,5.00,0.00,22.8,23.1,00.0,31.7,24.7,05.1,0000.0,0002.20,0000.15,0000.02
2022-01-02 06:16:00,,0823.7,5.00,0.00,22.8,22.9,00.0,31.7,24.6,05.5,0000.0,0002.15,0000.17,0000.02
2022-01-02 06:17:00,,0823.7,5.01,0.00,22.8,22.6,00.0,31.7,24.5,05.6,0000.0,0001.28,0000.15,0000.02
2022-01-02 06:18:00,,0823.8,5.01,0.00,22.7,22.4,00.0,31.7,24.4,05.4,0000.0,0000.80,0000.16,0000.02
2022-01-02 06:19:00,,0823.8,4.99,0.00,22.7,22.3,00.0,31.7,24.3,05.1,0000.0,0000.89,0000.18,0000.02
2022-01-02 06:20:00,,0823.8,5.01,0.00,22.6,22.1,00.0,31.7,24.3,04.9,0000.0,0000.84,0000.16,0000.01
2022-01-02 06:21:00,,0823.8,5.01,0.00,22.6,22.0,00.0,31.6,24.2,04.8,0000.0,0000.46,0000.15,0000.01
2022-01-02 06:22:00,,0823.8,4.98,0.00,22.6,21.9,00.0,31.6,24.1,04.9,0000.0,0000.83,0000.16,0000.02
2022-01-02 06:23:00,,0823.8,5.01,0.00,22.5,22.0,00.0,31.6,24.1,05.3,0000.0,0001.59,0000.15,0000.01
2022-01-02 06:24:00,,0823.8,5.00,0.00,22.6,22.6,00.0,31.6,24.3,05.2,0000.0,0001.67,0000.14,0000.01
2022-01-02 06:25:00,,0823.8,5.00,0.00,22.7,23.2,00.0,31.7,24.5,05.1,0000.0,0001.68,0000.14,0000.01
2022-01-02 06:26:00,,0823.8,5.00,0.00,22.8,23.5,00.0,31.7,24.7,05.1,0000.0,0001.71,0000.15,0000.01
2022-01-02 06:27:00,,0823.8,5.00,0.00,22.8,23.2,00.0,31.7,24.7,05.0,0000.0,0001.64,0000.13,0000.01
2022-01-02 06:28:00,,0823.9,5.01,0.00,22.8,22.9,00.0,31.7,24.6,04.9,0000.0,0001.63,0000.12,0000.01
2022-01-02 06:29:00,,0823.9,5.00,0.00,22.8,22.7,00.0,31.7,24.5,04.6,0000.0,0001.61,0000.12,0000.02
2022-01-02 06:30:00,,0823.9,5.00,0.00,22.7,22.4,00.0,31.7,24.4,04.8,0000.0,0001.52,0000.09,0000.01
2022-01-02 06:31:00,,0823.9,4.99,0.00,22.7,22.3,00.0,31.7,24.3,05.1,0000.0,0001.48,0000.08,0000.01
2022-01-02 06:32:00,,0823.8,5.01,0.00,22.6,22.1,00.0,31.7,24.2,05.1,0000.0,0001.51,0000.10,0000.01
2022-01-02 06:33:00,,0823.8,5.00,0.00,22.6,22.0,00.0,31.6,24.2,04.9,0000.0,0001.19,0000.08,0000.01
2022-01-02 06:34:00,,0823.8,5.00,0.00,22.5,21.9,00.0,31.6,24.1,04.9,0000.0,0000.52,0000.05,0000.01
2022-01-02 06:35:00,,0823.8,5.00,0.00,22.6,22.4,00.0,31.7,24.3,04.6,0000.0,0000.47,0000.05,0000.01
2022-01-02 06:36:00,,0823.8,5.00,0.00,22.7,23.1,00.0,31.7,24.5,04.5,0000.0,0000.53,0000.06,0000.01
2022-01-02 06:37:00,,0823.8,5.00,0.00,22.8,23.5,00.0,31.7,24.7,04.5,0000.0,0000.81,0000.08,0000.01
2022-01-02 06:38:00,,0823.7,5.00,0.00,22.9,23.2,00.0,31.7,24.7,04.6,0000.0,0001.15,0000.08,0000.01
2022-01-02 06:39:00,,0823.7,5.01,0.00,22.8,22.9,00.0,31.7,24.5,04.5,0000.0,0001.83,0000.08,0000.01
2022-01-02 06:40:00,,0823.7,5.00,0.00,22.8,22.7,00.0,31.7,24.4,04.5,0000.0,0002.06,0000.08,0000.01
2022-01-02 06:41:00,,0823.7,5.00,0.00,22.7,22.4,00.0,31.7,24.3,04.5,0000.0,0003.64,0000.08,0000.01
2022-01-02 06:42:00,,0823.7,5.00,0.00,22.6,22.2,00.0,31.7,24.2,04.5,0000.0,0003.64,0000.08,0000.01
2022-01-02 06:43:00,,0823.7,5.00,0.00,22.6,22.0,00.0,31.7,24.1,04.4,0000.0,0003.64,0000.06,0000.01
2022-01-02 06:44:00,,0823.7,4.99,0.00,22.5,21.8,00.0,31.6,24.0,04.2,0000.0,0005.23,0000.07,0000.01
2022-01-02 06:45:00,,0823.7,5.01,0.00,22.5,21.9,00.0,31.6,24.0,04.3,0000.0,0005.87,0000.09,0000.01
2022-01-02 06:46:00,,0823.8,5.00,0.00,22.6,22.5,00.0,31.6,24.2,04.4,0000.0,0005.73,0000.08,0000.01
2022-01-02 06:47:00,,0823.7,4.99,0.00,22.7,23.2,00.0,31.7,24.5,04.2,0000.0,0005.71,0000.07,0000.01
2022-01-02 06:48:00,,0823.7,5.01,0.00,22.8,23.6,00.0,31.7,24.7,04.1,0000.0,0005.39,0000.07,0000.02
2022-01-02 06:49:00,,0823.7,5.00,0.00,22.9,23.3,00.0,31.7,24.7,04.2,0000.0,0005.00,0000.08,0000.02
2022-01-02 06:50:00,,0823.7,4.99,0.00,22.8,23.0,00.0,31.7,24.6,04.3,0000.0,0004.41,0000.09,0000.02
2022-01-02 06:51:00,,0823.7,5.01,0.00,22.8,22.7,00.0,31.7,24.5,04.3,0000.0,0003.96,0000.09,0000.02
2022-01-02 06:52:00,,0823.7,4.99,0.00,22.7,22.5,00.0,31.7,24.4,04.5,0000.0,0002.62,0000.10,0000.02
2022-01-02 06:53:00,,0823.7,5.02,0.00,22.7,22.3,00.0,31.7,24.3,04.5,0000.0,0002.61,0000.10,0000.01
2022-01-02 06:54:00,,0823.7,4.99,0.00,22.6,22.1,00.0,31.7,24.2,04.4,0000.0,0002.47,0000.12,0000.02
2022-01-02 06:55:00,,0823.7,5.00,0.00,22.6,22.0,00.0,31.7,24.1,04.5,0000.0,0000.95,0000.11,0000.02
2022-01-02 06:56:00,,0823.7,5.00,0.00,22.5,21.8,00.0,31.6,24.0,04.5,0000.0,0000.24,0000.10,0000.01
2022-01-02 06:57:00,,0823.7,4.99,0.00,22.5,22.1,00.0,31.6,24.1,04.5,0000.0,0000.37,0000.11,0000.02
2022-01-02 06:58:00,,0823.7,5.00,0.00,22.6,22.7,00.0,31.7,24.3,04.7,0000.0,0000.39,0000.10,0000.02
2022-01-02 06:59:00,,0823.7,5.00,0.00,22.7,23.3,00.0,31.7,24.6,04.6,0000.0,0000.35,0000.09,0000.01
